Regional Weather Roundup
Issued by NWS

Home | Current Version | Previous Version | Text Only | Print | Product List | Glossary On
Versions: 1 2 3 4 5 6 7 8 9 10 11 12 13 14 15 16 17 18 19 20 21 22 23 24 25 26 27 28 29 30 31 32 33 34 35 36 37 38 39 40 41 42 43 44 45 46 47 48 49 50
000
ASUS44 KFWD 020415
RWRTX
NORTH TEXAS HOURLY WEATHER ROUNDUP
NATIONAL WEATHER SERVICE FORT WORTH TX
1100 PM CDT SAT AUG 01 2015

NOTE: "FAIR" INDICATES FEW OR NO CLOUDS BELOW 12,000 FEET WITH NO
SIGNIFICANT WEATHER AND/OR OBSTRUCTIONS TO VISIBILITY.

TXZ118-119-020500-
DALLAS/FORT WORTH METROPLEX

CITY           SKY/WX    TMP DP  RH WIND       PRES   REMARKS
DFW AIRPORT    MOCLDY    85  59  41 SE7       29.96R
DALLAS LOVE    PTCLDY    88  59  37 SE6       29.96R
FTW MEACHAM    MOCLDY    89  58  34 E6        29.95R
DAL-EXECUTIVE  PTCLDY    84  59  42 SE5       29.96R
FTW-ALLIANCE   MOCLDY    83  62  49 SE7       29.96R
FTW-NAS-JRB    MOCLDY    88  59  37 SE5       29.96R
FTW-SPINKS     MOCLDY    80  63  55 CALM      29.98R
ARLINGTON      PTCLDY    85  61  44 SE3       29.96R
GRAND PRAIRIE  PTCLDY    86  60  40 CALM      29.98R
ADDISON        PTCLDY    88  60  38 E5        29.98R
MESQUITE       CLEAR     83  57  42 E3        29.96S
LANCASTER      CLEAR     81  57  43 CALM      29.97R
$$

TXZ091>094-102>105-117-120-121-131>134-020500-
NORTH CENTRAL TEXAS

CITY           SKY/WX    TMP DP  RH WIND       PRES   REMARKS
SHRMAN/DENISON PTCLDY    84  62  47 SE7       29.99R
GAINESVILLE    MOCLDY    80  62  55 CALM      29.99S
BOWIE          MOCLDY    76  68  77 CALM      29.99S
DECATUR        MOCLDY    80  66  62 NE3       29.99R
DENTON         MOCLDY    81  61  50 CALM      29.96R
MCKINNEY       PTCLDY    81  63  54 SE3       29.97R
GREENVILLE     CLEAR     79  61  53 CALM      29.97S
ROCKWALL       CLEAR     83  61  46 SE6       29.95S
TERRELL        CLEAR     81  62  52 E3        29.97R
WAXAHACHIE     PTCLDY    82  61  49 CALM      29.98R
CLEBURNE         N/A     84  59  42 E7        29.98S
GRANBURY       PTCLDY    85  60  42 CALM      29.98R
$$

TXZ083>090-098>101-113>116-127>130-139>142-154-155-020500-
WESTERN NORTH TEXAS

CITY           SKY/WX    TMP DP  RH WIND       PRES   REMARKS
WICHITA FALLS  CLOUDY    78  73  84 N3        29.99R
WF-KICKAPOO    CLOUDY    81  71  71 CALM      30.00R
VERNON         MOCLDY    78  67  68 E3        30.01F
ABILENE        CLOUDY    84  64  50 SE8       30.00S
ABILENE-DYESS  CLOUDY    85  66  52 SE5       29.99R
BRECKENRIDGE   CLOUDY    82  64  54 E5        29.98S
GRAHAM         CLOUDY    77  71  82 CALM      29.97S
MINERAL WELLS  PTCLDY    80  70  71 E3        29.97R
STEPHENVILLE   CLOUDY    83  57  41 SE5       30.01S
COMANCHE       PTCLDY    80  60  50 S3        29.99S
BROWNWOOD      PTCLDY    81  59  47 E6        29.99R
COLEMAN        PTCLDY    80  64  58 CALM      30.00S
BRADY          CLEAR     82  57  42 E6        30.00S
$$

TXZ143>147-156>162-174-175-020500-
CENTRAL TEXAS

CITY           SKY/WX    TMP DP  RH WIND       PRES   REMARKS
WACO           PTCLDY    84  62  47 E5        29.95R
WACO-TSTC      CLEAR     82  63  51 E3        29.94S
WACO-MCGREGOR  PTCLDY    82  55  39 S3        29.96S
HILLSBORO      PTCLDY    84  56  38 E6        29.96R
CORSICANA      CLEAR     83  62  49 E7        29.96R
MEXIA          CLEAR     80  61  51 SE9       29.95R
HEARNE         CLEAR     82  61  49 CALM      29.95R
CAMERON        CLEAR     82  64  53 SE3       29.94R
TEMPLE         CLEAR     81  57  44 E5        29.95S
KILLEEN        CLEAR     84  57  39 CALM      29.96R
KILLEEN-SKYLRK CLEAR     84  57  39 E5        29.96R
FORT HOOD      CLEAR     84  58  40 E5        29.95R
GATESVILLE     CLEAR     82  59  44 CALM      29.98S
HAMILTON       CLEAR     84  52  32 SE8       29.99S
LAMPASAS       CLEAR     82  56  40 SE3       29.98R
$$

TXZ095>097-106>112-122>126-135>138-148>153-164>167-020500-
EAST TEXAS

CITY           SKY/WX    TMP DP  RH WIND       PRES   REMARKS
PARIS          PTCLDY    81  61  50 SE7       29.98R
SULPHUR SPRNGS CLEAR     81  59  45 SE3       29.99S
MOUNT PLEASANT PTCLDY    78  61  54 CALM      29.98S
GILMER         CLEAR     74  62  66 CALM      29.97S
MINEOLA        CLEAR     75  63  64 CALM      29.98R
TYLER          CLEAR     84  59  42 E5        29.97R
LONGVIEW       CLEAR     77  64  64 CALM      29.95S
MARSHALL       CLEAR     76  66  71 CALM      29.98S
ATHENS         CLEAR     75  63  64 CALM      29.95S
PALESTINE      CLEAR     82  58  44 E5        29.96S
JACKSONVILLE   CLEAR     82  56  40 E3        29.99S
HENDERSON      CLEAR     74  62  64 CALM      29.97S
CENTER         FAIR      75  65  70 CALM      29.95S
NACOGDOCHES    CLEAR     73  64  73 CALM      29.95S
LUFKIN         CLEAR     79  62  56 NE5       29.93F
$$

SUPPLEMENTAL OBSERVATIONS (CENTRAL)

CITY           SKY/WX    TMP DP  RH WIND       PRES   REMARKS
CADDO GRASSLND   N/A     79  64  61 S3          N/A
PAT MAYSE LAKE   N/A     82  61  47 SE7         N/A
GREENVILLE       N/A     82  57  42 E3          N/A
CEDAR HILL       N/A     81  59  47 SE1         N/A
LAKE LIMESTONE   N/A     79  59  50 E1          N/A
MCGREGOR         N/A     82  57  42 SE5         N/A
TEMPLE           N/A     84  57  39 E5          N/A
$$

SUPPLEMENTAL OBSERVATIONS (WEST)

CITY           SKY/WX    TMP DP  RH WIND       PRES   REMARKS
MILLERS CREEK    N/A     75  70  83 NE3         N/A
POSSUM KINGDOM   N/A     82  68  61 E5          N/A
LBJ GRASSLAND    N/A     81  66  61 NE1         N/A
GRANBURY         N/A     84  59  42 S3          N/A
COMANCHE         N/A     81  57  44 SE5         N/A
HAMBY            N/A     82  64  54 E6          N/A
IVIE RESERVOIR   N/A     82  57  42 E6          N/A
COLORADO BEND    N/A     81  54  39 S3          N/A
$$

SUPPLEMENTAL OBSERVATIONS (EAST)

CITY           SKY/WX    TMP DP  RH WIND       PRES   REMARKS
CLARKSVILLE      N/A     77  66  69 CALM        N/A
TEXARKANA        N/A     70  64  83 CALM        N/A
LINDEN           N/A     73  63  68 CALM        N/A
CADDO LAKE       N/A     68  64  88 CALM        N/A
GILMER           N/A     73  63  68 CALM        N/A
HENDERSON        N/A     77  59  53 E1          N/A
LUFKIN           N/A     75  68  78 MISG        N/A
N SABINE NF      N/A     72  63  73 MISG        N/A
S SABINE NF      N/A     72  63  73 CALM        N/A
$$

SUPPLEMENTAL OBSERVATIONS ARE A COLLECTION OF AUTOMATED INSTRUMENTS
THAT ARE MAINTAINED BY A VARIETY OF FEDERAL AND STATE AGENCIES.
CERTAIN ELEMENTS...SUCH AS HUMIDITY VALUES AND SUSTAINED WIND
SPEEDS...MAY BE APPROXIMATED.



USA.gov is the U.S. government's official web portal to all federal, state and local government web resources and services.